[[{"header":{"parameterUnit":"m.s-1","parameterCategory":2,"la1":30.2991,"la2":30.254,"lo1":-89.0895,"lo2":-89.0444,"dy":0.0017,"dx":0.0017,"nx":28,"ny":28,"refTime":"2024-06-14T21:00:00:Z","depth":"0","parameterNumber":2,"parameterNumberName":"U-component_of_CURRENTS"},"data":[0,0,0,0,0,0,0,0,0,0,0,0,0,0,0,0,0,0,0,0,0,0,0,0,0,0,0,0,0,0,0,0,0,0,0,0,0,0,0,0,0,0,0,0,0,0,0,0,0,0,0,0,0,0,0,0,0,0,-0.2085,-0.2085,0,-0.2074,-0.2074,-0.2074,-0.2037,-0.2037,-0.2036,-0.2036,-0.1963,-0.1961,-0.196,0,0,0,0,0,0,0,0,0,0,0,0,0,-0.2042,-0.2043,-0.2085,-0.2085,-0.2085,-0.2075,-0.2074,-0.2074,-0.2037,-0.2037,-0.2036,-0.2036,-0.1963,-0.1961,-0.196,0,0,0,0,0,0,0,0,0,0,0,0,0,-0.2046,-0.2044,-0.2085,-0.2068,-0.2067,-0.2075,-0.2074,-0.2073,-0.2038,-0.2037,-0.2036,-0.2035,-0.1964,-0.1962,-0.1959,-0.196,0,0,-0.1953,-0.1952,0,0,0,0,0,0,0,0,-0.2046,-0.2047,-0.2071,-0.207,-0.2068,-0.206,-0.2032,-0.2034,-0.2038,-0.2045,-0.2036,-0.2035,-0.1992,-0.1988,-0.1983,-0.1957,-0.1954,-0.1952,-0.1951,-0.195,-0.1949,0,0,0,0,0,0,0,-0.2046,-0.2047,-0.2077,-0.2071,-0.207,-0.2051,-0.2051,-0.2032,-0.2019,-0.2044,-0.2043,-0.2047,-0.199,-0.1985,-0.1981,-0.1953,-0.1952,-0.195,-0.1949,-0.1948,-0.2009,-0.2012,0,0,0,0,0,0,-0.2057,-0.2048,-0.2077,-0.2077,-0.2059,-0.2053,-0.2052,-0.206,-0.202,-0.2015,-0.2048,-0.2046,-0.199,-0.1984,-0.1978,-0.2043,-0.195,-0.1948,-0.1947,-0.2007,-0.201,-0.2013,0,0,0,0,0,0,-0.2056,-0.206,-0.2078,-0.2064,-0.2066,-0.2055,-0.2064,-0.206,-0.2056,-0.2025,-0.2017,-0.2048,-0.1989,-0.1981,-0.1987,-0.2037,-0.1947,-0.1945,-0.2003,-0.2008,-0.2012,-0.213,0,0,0,0,0,0,-0.2055,-0.206,-0.2065,-0.2066,-0.2067,-0.2105,-0.2065,-0.2061,-0.2062,-0.2059,-0.2022,-0.2014,-0.1988,-0.1991,-0.1985,-0.2032,-0.1943,-0.1999,-0.2005,-0.201,-0.2122,-0.2138,-0.2151,0,0,0,0,0,-0.2053,-0.2072,-0.2065,-0.2069,-0.2077,-0.2107,-0.2107,-0.2093,-0.2063,-0.2081,-0.2058,-0.2015,-0.2022,-0.1991,-0.1983,-0.2031,-0.1997,-0.2003,-0.201,-0.2116,-0.2135,-0.2151,0,0,0,0,0,0,-0.2057,-0.207,-0.2063,-0.2084,-0.2103,-0.2102,-0.2107,-0.2098,-0.2092,-0.2077,-0.2039,-0.2032,-0.2061,-0.2032,-0.1998,-0.2071,-0.2008,-0.2014,-0.2092,-0.2109,-0.2123,-0.2116,-0.1941,0,0,0,0,0,-0.2061,-0.2071,-0.2092,-0.2106,-0.2116,-0.211,-0.2115,-0.2111,-0.2108,-0.2103,-0.2085,-0.2072,-0.2084,-0.2083,-0.2081,-0.2106,-0.2058,-0.214,-0.2154,-0.2167,-0.2159,-0.2137,-0.2148,-0.2035,-0.2035,-0.2035,0,0,-0.2063,-0.2072,-0.2076,-0.2106,-0.2107,-0.2155,-0.211,-0.2127,-0.217,-0.2096,-0.2133,-0.2114,-0.2102,-0.2144,-0.2155,-0.2124,-0.2178,-0.2175,-0.2185,-0.217,-0.2145,-0.2155,-0.2165,-0.204,-0.2039,-0.2038,0,0,-0.2084,-0.2084,-0.2106,-0.2137,-0.2158,-0.2173,-0.2185,-0.2197,-0.2204,-0.2239,-0.221,-0.2221,-0.2226,-0.2239,-0.2244,-0.2335,-0.2254,-0.2341,-0.2405,-0.2385,-0.2393,-0.2399,-0.2362,-0.2364,-0.235,-0.235,-0.235,0,-0.2083,-0.2123,-0.212,-0.2165,-0.2199,-0.2191,-0.2247,-0.2268,-0.2284,-0.2293,-0.2269,-0.2285,-0.2278,-0.233,-0.2375,-0.2367,-0.2325,-0.2337,-0.2401,-0.2406,-0.241,-0.237,-0.2371,-0.2356,-0.2356,-0.2355,-0.2354,0,-0.2131,-0.2174,-0.2193,-0.2253,-0.2296,-0.2335,-0.2381,-0.241,-0.241,-0.242,-0.245,-0.2435,-0.2438,-0.2461,-0.2447,-0.2493,-0.2444,-0.2418,-0.2348,-0.2428,-0.2382,-0.238,-0.2366,-0.2363,-0.2361,-0.236,0,0,-0.2095,-0.2204,-0.2211,-0.2263,-0.2344,-0.2382,-0.2466,-0.253,-0.2555,-0.2571,-0.2594,-0.2639,-0.2591,-0.2594,-0.2573,-0.2569,-0.2584,-0.2512,-0.2508,-0.246,-0.2518,-0.2395,-0.238,-0.2557,-0.2557,-0.2558,-0.2476,0,-0.213,-0.2236,-0.2286,-0.2399,-0.2462,-0.2508,-0.2584,-0.2638,-0.2657,-0.2677,-0.2665,-0.2674,-0.2656,-0.264,-0.2643,-0.2591,-0.2583,-0.2607,-0.246,-0.2455,-0.2323,-0.2376,-0.2305,-0.2217,-0.2473,-0.2473,-0.2473,0,-0.2151,-0.2231,-0.234,-0.2474,-0.2501,-0.2563,-0.2654,-0.2723,-0.2762,-0.2765,-0.2766,-0.2735,-0.2747,-0.2701,-0.2655,-0.2663,-0.2605,-0.2559,-0.2554,-0.2389,-0.2328,-0.2179,-0.2203,-0.2186,-0.2469,-0.2469,-0.2469,0,-0.2113,-0.2264,-0.2349,-0.2397,-0.2544,-0.2586,-0.2656,-0.2726,-0.2763,-0.2795,-0.2785,-0.2792,-0.2754,-0.2714,-0.2623,-0.2639,-0.2528,-0.2539,-0.2373,-0.2363,-0.2247,-0.2225,-0.2219,-0.2497,-0.2497,-0.2497,-0.2497,0,-0.2121,-0.2187,-0.2329,-0.2374,-0.2466,-0.257,-0.2633,-0.2699,-0.2752,-0.2759,-0.2801,-0.2768,-0.2749,-0.2678,-0.2623,-0.247,-0.2525,-0.2378,-0.2334,-0.2288,-0.2271,-0.2202,-0.222,-0.2494,-0.2495,-0.2495,-0.2496,0,-0.2046,-0.2143,-0.2245,-0.2399,-0.2442,-0.2496,-0.2612,-0.2637,-0.2711,-0.2711,-0.2713,-0.2736,-0.2641,-0.2588,-0.2493,-0.2432,-0.2272,-0.2254,-0.2186,-0.2136,-0.1981,-0.2008,-0.19,-0.185,-0.2088,-0.2084,-0.2081,0,-0.2016,-0.2059,-0.2223,-0.2258,-0.2314,-0.2409,-0.2447,-0.2582,-0.2597,-0.2658,-0.2626,-0.2579,-0.2494,-0.2329,-0.222,-0.209,-0.2097,-0.1947,-0.198,-0.1953,-0.1953,-0.197,-0.1939,-0.1886,-0.1881,-0.1878,-0.1875,0,-0.1939,-0.1981,-0.2048,-0.2144,-0.2194,-0.2274,-0.234,-0.2362,-0.2472,-0.2476,-0.2438,-0.2393,-0.2254,-0.2087,-0.1932,-0.1857,-0.1906,-0.1867,-0.1871,-0.1812,-0.18,-0.1736,-0.1957,-0.1843,-0.1847,-0.1849,-0.1851,-0.1852,-0.1829,-0.1847,-0.1919,-0.1988,-0.2055,-0.2093,-0.2093,-0.2152,-0.217,-0.2141,-0.2199,-0.2086,-0.1991,-0.177,-0.1694,-0.156,-0.1628,-0.1537,-0.1577,-0.16,-0.1537,-0.1666,-0.148,-0.1481,-0.1482,-0.1483,-0.1483,0,-0.1689,-0.1708,-0.1761,-0.1824,-0.1831,-0.1936,-0.197,-0.1932,-0.1879,-0.1888,-0.1838,-0.1721,-0.158,-0.1514,-0.1387,-0.1316,-0.1322,-0.1293,-0.1351,-0.1338,-0.1472,-0.1449,-0.1209,-0.1209,-0.1209,-0.1209,-0.1209,-0.1209,-0.1607,-0.1578,-0.1614,-0.1575,-0.1617,-0.1574,-0.1566,-0.1532,-0.1517,-0.1424,-0.1362,-0.1365,-0.1334,-0.1376,-0.1277,-0.1219,-0.1216,-0.1154,-0.118,-0.1339,-0.1368,-0.1395,-0.1379,-0.1127,-0.1127,-0.1015,-0.1015,-0.1014]},{"header":{"parameterUnit":"m.s-1","parameterCategory":2,"la1":30.2991,"la2":30.254,"lo1":-89.0895,"lo2":-89.0444,"dy":0.0017,"dx":0.0017,"nx":28,"ny":28,"refTime":"2024-06-14T21:00:00:Z","depth":"0","parameterNumber":3,"parameterNumberName":"V-component_of_CURRENTS"},"data":[0,0,0,0,0,0,0,0,0,0,0,0,0,0,0,0,0,0,0,0,0,0,0,0,0,0,0,0,0,0,0,0,0,0,0,0,0,0,0,0,0,0,0,0,0,0,0,0,0,0,0,0,0,0,0,0,0,0,0.0185,0.0185,0,0.0247,0.0247,0.0248,0.0268,0.0267,0.0267,0.0267,0.0317,0.0318,0.032,0,0,0,0,0,0,0,0,0,0,0,0,0,0.0172,0.0172,0.0185,0.0185,0.0186,0.0246,0.0247,0.0248,0.0268,0.0267,0.0267,0.0267,0.0316,0.0318,0.032,0,0,0,0,0,0,0,0,0,0,0,0,0,0.02,0.0172,0.0185,0.0203,0.0205,0.0246,0.0247,0.0248,0.0268,0.0267,0.0267,0.0267,0.0315,0.0318,0.032,0.0344,0,0,0.0327,0.0328,0,0,0,0,0,0,0,0,0.0198,0.02,0.02,0.0202,0.0204,0.0249,0.0261,0.028,0.0268,0.0244,0.0267,0.0266,0.0293,0.0297,0.031,0.0346,0.0348,0.0328,0.0329,0.033,0.0331,0,0,0,0,0,0,0,0.0196,0.0199,0.0209,0.02,0.0203,0.0239,0.0241,0.0265,0.027,0.0246,0.0248,0.0255,0.0294,0.0308,0.0312,0.0349,0.0328,0.033,0.0331,0.0332,0.0408,0.0408,0,0,0,0,0,0,0.0184,0.0196,0.0207,0.0211,0.02,0.0239,0.0242,0.0235,0.027,0.0275,0.0255,0.0255,0.0304,0.0309,0.0313,0.0327,0.033,0.0332,0.0334,0.0407,0.0408,0.0408,0,0,0,0,0,0,0.0183,0.0184,0.0205,0.0206,0.0211,0.0239,0.0232,0.0237,0.0248,0.0277,0.0282,0.0261,0.0304,0.031,0.0333,0.0329,0.0333,0.0336,0.0406,0.0407,0.0408,0.0364,0,0,0,0,0,0,0.0182,0.0183,0.0174,0.0204,0.021,0.0221,0.0232,0.0238,0.0253,0.0254,0.0284,0.0288,0.0304,0.0329,0.0335,0.0332,0.0338,0.0406,0.0407,0.0408,0.0365,0.0363,0.0362,0,0,0,0,0,0.0182,0.0165,0.0173,0.0174,0.0196,0.0221,0.0227,0.0246,0.0253,0.0256,0.0279,0.0287,0.034,0.0332,0.0339,0.0336,0.0405,0.0407,0.0408,0.0365,0.0363,0.0362,0,0,0,0,0,0,0.0153,0.0167,0.0175,0.0163,0.0188,0.0223,0.0225,0.0246,0.0268,0.0265,0.0295,0.0301,0.032,0.034,0.033,0.0364,0.0374,0.0377,0.034,0.0338,0.0337,0.0322,0.034,0,0,0,0,0,0.0143,0.0132,0.0161,0.0152,0.016,0.0195,0.0207,0.0223,0.0248,0.0257,0.0282,0.0309,0.0333,0.0343,0.0368,0.0387,0.041,0.0392,0.039,0.0389,0.0383,0.0409,0.0408,0.0413,0.0413,0.0413,0,0,0.0131,0.0136,0.0131,0.0145,0.0163,0.017,0.02,0.0213,0.0222,0.026,0.0275,0.0305,0.0339,0.0357,0.0368,0.037,0.0404,0.039,0.0388,0.0384,0.041,0.0409,0.0409,0.0413,0.0413,0.0413,0,0,0.0095,0.0103,0.0081,0.0101,0.0123,0.0149,0.0151,0.0188,0.0206,0.0232,0.026,0.0287,0.0326,0.0348,0.0364,0.0373,0.0397,0.0383,0.036,0.0384,0.0383,0.0383,0.0425,0.0429,0.038,0.038,0.0379,0,0.0077,0.0053,0.0082,0.0073,0.0084,0.0135,0.0127,0.0157,0.0199,0.0214,0.0228,0.0293,0.032,0.0345,0.0348,0.0367,0.0391,0.0358,0.038,0.038,0.038,0.0424,0.0428,0.0378,0.0378,0.0378,0.0378,0,0.0026,0.0016,0.0007,0.0009,0.0031,0.0032,0.008,0.0105,0.0137,0.0169,0.0207,0.0254,0.029,0.0307,0.0329,0.0348,0.0369,0.0374,0.0377,0.0377,0.0423,0.0429,0.0375,0.0375,0.0376,0.0377,0,0,-0.0033,-0.0035,-0.0036,-0.0044,-0.0004,0.0006,0.0032,0.0066,0.0081,0.0132,0.0154,0.0205,0.0237,0.0259,0.0296,0.0321,0.0352,0.0344,0.0346,0.0374,0.0419,0.0445,0.0454,0.0356,0.0356,0.0357,0.0455,0,-0.0084,-0.0138,-0.0102,-0.012,-0.014,-0.0068,-0.0046,0.0,0.0049,0.0089,0.0149,0.0184,0.0217,0.0237,0.0266,0.0335,0.0363,0.0326,0.0426,0.043,0.0441,0.0459,0.0449,0.0536,0.0461,0.0462,0.0462,0,-0.0143,-0.0175,-0.0223,-0.02,-0.0195,-0.0184,-0.0135,-0.0102,-0.0024,0.0017,0.0068,0.0126,0.0185,0.0209,0.0312,0.0286,0.0344,0.0395,0.04,0.044,0.0464,0.0524,0.0549,0.0637,0.0471,0.0471,0.047,0,-0.0231,-0.0243,-0.0292,-0.0286,-0.0256,-0.0245,-0.0213,-0.0139,-0.0103,-0.0028,0.0008,0.0084,0.0142,0.0209,0.033,0.0317,0.045,0.0444,0.0523,0.0526,0.0546,0.055,0.0655,0.0502,0.0502,0.0502,0.0502,0,-0.0306,-0.0333,-0.034,-0.0368,-0.0394,-0.0327,-0.0314,-0.0267,-0.0182,-0.0128,-0.0041,0.0027,0.0143,0.0245,0.0325,0.0456,0.0448,0.0525,0.0551,0.0533,0.0535,0.0635,0.0673,0.0506,0.0505,0.0504,0.0503,0,-0.0387,-0.0397,-0.0449,-0.0448,-0.0445,-0.046,-0.0387,-0.0361,-0.0274,-0.0197,-0.017,-0.001,0.0138,0.0259,0.0405,0.0465,0.0629,0.0615,0.06,0.0621,0.0753,0.0788,0.0925,0.098,0.0707,0.0708,0.0709,0,-0.0432,-0.0482,-0.0527,-0.0554,-0.0554,-0.0551,-0.0533,-0.0437,-0.038,-0.0202,-0.016,0.0005,0.0154,0.038,0.0502,0.0645,0.0711,0.0715,0.0678,0.0767,0.0826,0.0851,0.0888,0.0699,0.07,0.0701,0.0701,0,-0.0512,-0.0536,-0.058,-0.0658,-0.0669,-0.0653,-0.0605,-0.0562,-0.0404,-0.0307,-0.0109,0.0025,0.0256,0.0444,0.0612,0.0684,0.0774,0.0732,0.0825,0.083,0.0864,0.0926,0.0643,0.0707,0.0706,0.0706,0.0706,0.0705,-0.0556,-0.0615,-0.0681,-0.0739,-0.0751,-0.0715,-0.0659,-0.0552,-0.0428,-0.021,-0.0095,0.0108,0.0359,0.0608,0.0707,0.0866,0.0856,0.0899,0.0938,0.0959,0.0998,0.0736,0.0823,0.0823,0.0824,0.0824,0.0824,0,-0.0603,-0.0668,-0.0742,-0.0796,-0.0805,-0.0791,-0.0666,-0.0543,-0.0348,-0.0222,-0.0021,0.0241,0.0497,0.0708,0.096,0.1061,0.1075,0.1112,0.1139,0.1171,0.094,0.0923,0.1035,0.1035,0.1035,0.1035,0.1035,0.1035,-0.0632,-0.0728,-0.0776,-0.0822,-0.0835,-0.0763,-0.0664,-0.0443,-0.0295,-0.0042,0.0093,0.0197,0.0524,0.1012,0.1277,0.1281,0.1388,0.136,0.1446,0.1274,0.1256,0.124,0.1234,0.1409,0.1409,0.1648,0.1651,0.1653]}],[{"header":{"parameterUnit":"m.s-1","parameterCategory":2,"la1":30.2991,"la2":30.254,"lo1":-89.0895,"lo2":-89.0444,"dy":0.0017,"dx":0.0017,"nx":28,"ny":28,"refTime":"2024-06-14T21:00:00:Z","depth":"2","parameterNumber":2,"parameterNumberName":"U-component_of_CURRENTS"},"data":[0,0,0,0,0,0,0,0,0,0,0,0,0,0,0,0,0,0,0,0,0,0,0,0,0,0,0,0,0,0,0,0,0,0,0,0,0,0,0,0,0,0,0,0,0,0,0,0,0,0,0,0,0,0,0,0,0,0,-0.1846,-0.1846,0,-0.1819,-0.1819,-0.1818,-0.1768,-0.1767,-0.1767,-0.1766,-0.1709,-0.1708,-0.1707,0,0,0,0,0,0,0,0,0,0,0,0,0,-0.1778,-0.1779,-0.1846,-0.1846,-0.1846,-0.182,-0.1819,-0.1818,-0.1768,-0.1767,-0.1767,-0.1766,-0.171,-0.1708,-0.1707,0,0,0,0,0,0,0,0,0,0,0,0,0,-0.178,-0.178,-0.1846,-0.1822,-0.182,-0.182,-0.1819,-0.1818,-0.1768,-0.1767,-0.1767,-0.1766,-0.171,-0.1709,-0.1707,-0.1713,0,0,-0.1702,-0.1702,0,0,0,0,0,0,0,0,-0.178,-0.1782,-0.1825,-0.1823,-0.1821,-0.1801,-0.1774,-0.1783,-0.1768,-0.1782,-0.1766,-0.1765,-0.1741,-0.1737,-0.1727,-0.171,-0.1708,-0.1702,-0.1701,-0.17,-0.17,0,0,0,0,0,0,0,-0.178,-0.1783,-0.183,-0.1825,-0.1823,-0.1787,-0.1786,-0.1775,-0.1762,-0.1781,-0.1779,-0.1784,-0.1739,-0.1728,-0.1725,-0.1707,-0.1702,-0.1701,-0.17,-0.1699,-0.1759,-0.1762,0,0,0,0,0,0,-0.1799,-0.1783,-0.1831,-0.183,-0.1804,-0.1789,-0.1789,-0.1804,-0.1762,-0.1757,-0.1785,-0.1782,-0.1731,-0.1727,-0.1723,-0.1797,-0.17,-0.1699,-0.1698,-0.1757,-0.176,-0.1762,0,0,0,0,0,0,-0.1798,-0.1804,-0.1832,-0.1809,-0.1811,-0.1793,-0.1809,-0.1804,-0.1806,-0.1767,-0.1759,-0.1794,-0.1731,-0.1725,-0.1747,-0.1792,-0.1698,-0.1697,-0.1754,-0.1758,-0.1761,-0.1901,0,0,0,0,0,0,-0.1796,-0.1804,-0.1813,-0.1811,-0.1813,-0.1863,-0.181,-0.1804,-0.1812,-0.1808,-0.1772,-0.1765,-0.173,-0.175,-0.1746,-0.1788,-0.1696,-0.175,-0.1755,-0.176,-0.1894,-0.191,-0.1923,0,0,0,0,0,-0.1794,-0.1825,-0.1814,-0.1819,-0.1829,-0.1866,-0.1864,-0.1843,-0.1814,-0.1836,-0.1815,-0.1767,-0.1777,-0.1752,-0.1745,-0.1788,-0.1748,-0.1754,-0.176,-0.1887,-0.1906,-0.1923,0,0,0,0,0,0,-0.1801,-0.1823,-0.1811,-0.1845,-0.1866,-0.186,-0.1871,-0.1858,-0.1856,-0.1849,-0.18,-0.1794,-0.1827,-0.1794,-0.1767,-0.1821,-0.1754,-0.1759,-0.1853,-0.1871,-0.1886,-0.1892,-0.1694,0,0,0,0,0,-0.1808,-0.1834,-0.1852,-0.1879,-0.1892,-0.1882,-0.1888,-0.1886,-0.1887,-0.1884,-0.1865,-0.1847,-0.1844,-0.1848,-0.1836,-0.187,-0.1825,-0.1894,-0.1909,-0.1922,-0.1925,-0.1908,-0.1922,-0.1781,-0.1781,-0.1781,0,0,-0.1815,-0.1832,-0.1843,-0.1882,-0.1884,-0.1937,-0.1884,-0.1917,-0.1957,-0.188,-0.1923,-0.1896,-0.1864,-0.1902,-0.1914,-0.1883,-0.1941,-0.1929,-0.194,-0.1936,-0.1916,-0.1929,-0.1941,-0.1785,-0.1784,-0.1784,0,0,-0.1858,-0.1863,-0.1903,-0.1937,-0.1969,-0.1977,-0.1997,-0.2015,-0.2017,-0.206,-0.2013,-0.2022,-0.202,-0.2012,-0.2003,-0.2095,-0.2016,-0.2092,-0.2176,-0.2162,-0.2173,-0.2182,-0.215,-0.2155,-0.2104,-0.2105,-0.2105,0,-0.1858,-0.192,-0.1921,-0.1982,-0.2016,-0.2008,-0.2073,-0.2087,-0.2112,-0.2121,-0.2096,-0.2096,-0.2073,-0.2107,-0.2144,-0.2128,-0.2096,-0.2111,-0.218,-0.2188,-0.2195,-0.216,-0.2163,-0.2112,-0.2111,-0.211,-0.211,0,-0.1949,-0.1995,-0.2028,-0.21,-0.2142,-0.2198,-0.2232,-0.2266,-0.2263,-0.2266,-0.2294,-0.2263,-0.2254,-0.2262,-0.2232,-0.2278,-0.2233,-0.2196,-0.2132,-0.2217,-0.2175,-0.2176,-0.2123,-0.212,-0.2118,-0.2116,0,0,-0.1941,-0.2063,-0.2071,-0.212,-0.2209,-0.225,-0.2332,-0.2389,-0.2414,-0.2437,-0.2456,-0.2475,-0.2431,-0.2419,-0.2379,-0.2382,-0.2411,-0.2323,-0.2318,-0.2287,-0.2367,-0.2231,-0.2218,-0.2385,-0.2386,-0.2386,-0.2321,0,-0.2,-0.2125,-0.2178,-0.2294,-0.2358,-0.2398,-0.2464,-0.2516,-0.2528,-0.2547,-0.2523,-0.2521,-0.2498,-0.2477,-0.2487,-0.2411,-0.242,-0.2431,-0.2293,-0.2288,-0.2153,-0.2217,-0.2062,-0.1982,-0.2321,-0.2322,-0.2322,0,-0.2062,-0.214,-0.2256,-0.2375,-0.2403,-0.2466,-0.2546,-0.2609,-0.2643,-0.2643,-0.2651,-0.2611,-0.2616,-0.2567,-0.2522,-0.2527,-0.2471,-0.2421,-0.2416,-0.2237,-0.2154,-0.1951,-0.197,-0.2322,-0.2322,-0.2322,-0.2322,0,-0.2038,-0.2188,-0.2273,-0.2321,-0.2455,-0.2496,-0.2559,-0.2622,-0.2651,-0.2682,-0.2674,-0.2682,-0.2634,-0.2605,-0.2498,-0.2516,-0.2414,-0.2415,-0.2249,-0.2238,-0.205,-0.202,-0.2398,-0.2398,-0.2398,-0.2398,-0.2398,0,-0.2069,-0.214,-0.2258,-0.2306,-0.2389,-0.2484,-0.2545,-0.2607,-0.2653,-0.2654,-0.2696,-0.2655,-0.264,-0.2567,-0.2511,-0.2357,-0.242,-0.2267,-0.2216,-0.2095,-0.2071,-0.2316,-0.2308,-0.2396,-0.2396,-0.2397,-0.2397,0,-0.2025,-0.2109,-0.2204,-0.2336,-0.2374,-0.2421,-0.2527,-0.2549,-0.2619,-0.261,-0.2612,-0.2623,-0.2526,-0.248,-0.2387,-0.2325,-0.222,-0.2151,-0.1998,-0.193,-0.2065,-0.2065,-0.1998,-0.1993,-0.1988,-0.1985,-0.1981,0,-0.2016,-0.2066,-0.219,-0.2207,-0.2256,-0.2339,-0.2372,-0.2498,-0.2509,-0.2551,-0.2512,-0.2462,-0.2357,-0.2193,-0.2072,-0.1946,-0.2054,-0.1756,-0.1774,-0.2069,-0.2027,-0.2034,-0.2039,-0.159,-0.1584,-0.1579,-0.1575,0,-0.1987,-0.2015,-0.2058,-0.2108,-0.214,-0.2205,-0.2263,-0.2279,-0.2374,-0.2361,-0.229,-0.2221,-0.2069,-0.1851,-0.1712,-0.1633,-0.1773,-0.1648,-0.1983,-0.1708,-0.1676,-0.1637,-0.1658,-0.153,-0.1535,-0.1538,-0.154,-0.1542,-0.1913,-0.1915,-0.1944,-0.1978,-0.2008,-0.2022,-0.2012,-0.205,-0.2043,-0.1915,-0.1959,-0.1766,-0.173,-0.1398,-0.1327,-0.1303,-0.1422,-0.1394,-0.1413,-0.1436,-0.1393,-0.1355,-0.1141,-0.1143,-0.1144,-0.1146,-0.1147,0,-0.1829,-0.1814,-0.1824,-0.1828,-0.1799,-0.1874,-0.1887,-0.1819,-0.1724,-0.159,-0.1437,-0.1187,-0.1049,-0.1076,-0.096,-0.0946,-0.099,-0.094,-0.1009,-0.105,-0.1087,-0.1033,-0.0681,-0.068,-0.0679,-0.0678,0,0,-0.1764,-0.1731,-0.1738,-0.1629,-0.161,-0.1521,-0.1495,-0.1415,-0.1327,-0.1015,-0.0855,-0.075,-0.0931,-0.0726,-0.0729,-0.07,-0.0867,-0.0669,-0.103,-0.1143,-0.118,-0.1321,-0.1277,0,0,0,0,0]},{"header":{"parameterUnit":"m.s-1","parameterCategory":2,"la1":30.2991,"la2":30.254,"lo1":-89.0895,"lo2":-89.0444,"dy":0.0017,"dx":0.0017,"nx":28,"ny":28,"refTime":"2024-06-14T21:00:00:Z","depth":"2","parameterNumber":3,"parameterNumberName":"V-component_of_CURRENTS"},"data":[0,0,0,0,0,0,0,0,0,0,0,0,0,0,0,0,0,0,0,0,0,0,0,0,0,0,0,0,0,0,0,0,0,0,0,0,0,0,0,0,0,0,0,0,0,0,0,0,0,0,0,0,0,0,0,0,0,0,-0.0278,-0.0276,0,-0.0142,-0.014,-0.0139,-0.0077,-0.0077,-0.0077,-0.0077,0.0029,0.0032,0.0035,0,0,0,0,0,0,0,0,0,0,0,0,0,-0.0394,-0.0393,-0.0278,-0.0276,-0.0274,-0.0142,-0.014,-0.0138,-0.0077,-0.0077,-0.0077,-0.0077,0.0028,0.0031,0.0035,0,0,0,0,0,0,0,0,0,0,0,0,0,-0.031,-0.0392,-0.0278,-0.0227,-0.0221,-0.0142,-0.014,-0.0138,-0.0077,-0.0077,-0.0077,-0.0077,0.0027,0.0031,0.0035,0.0064,0,0,0.0049,0.005,0,0,0,0,0,0,0,0,-0.0315,-0.0306,-0.0236,-0.0231,-0.0224,-0.0126,-0.0142,-0.0071,-0.0077,-0.0133,-0.0077,-0.0077,-0.0025,-0.0016,0.0009,0.0069,0.0074,0.0049,0.0052,0.0053,0.0055,0,0,0,0,0,0,0,-0.0321,-0.0311,-0.0225,-0.0235,-0.0227,-0.018,-0.0169,-0.0128,-0.0081,-0.0128,-0.0123,-0.0106,-0.0022,0.0004,0.0012,0.0075,0.0049,0.0053,0.0055,0.0057,0.0188,0.0189,0,0,0,0,0,0,-0.0341,-0.0317,-0.0229,-0.0221,-0.027,-0.0178,-0.0166,-0.0158,-0.0081,-0.0069,-0.0106,-0.0104,-0.0003,0.0006,0.0015,0.0074,0.0053,0.0057,0.006,0.0188,0.0189,0.019,0,0,0,0,0,0,-0.0344,-0.0335,-0.0235,-0.0265,-0.0249,-0.0177,-0.0167,-0.0155,-0.0094,-0.0064,-0.0053,-0.0054,-0.0003,0.0009,0.0084,0.0078,0.0059,0.0063,0.0186,0.0188,0.0189,0.0178,0,0,0,0,0,0,-0.0348,-0.0337,-0.0332,-0.0266,-0.0248,-0.0158,-0.0167,-0.0152,-0.0085,-0.008,-0.0016,-0.0008,-0.0002,0.0078,0.0088,0.0083,0.0067,0.0185,0.0187,0.0189,0.0177,0.0179,0.018,0,0,0,0,0,-0.0353,-0.0348,-0.0333,-0.0322,-0.0246,-0.0156,-0.014,-0.0091,-0.0082,-0.0039,-0.0002,-0.0008,0.0094,0.0083,0.0095,0.0091,0.0185,0.0187,0.0189,0.0177,0.0179,0.018,0,0,0,0,0,0,-0.0393,-0.0339,-0.0322,-0.03,-0.0219,-0.0145,-0.0107,-0.0067,-0.0002,0.0005,0.0026,0.0038,0.0089,0.0107,0.0094,0.0134,0.013,0.0134,0.0116,0.0119,0.012,0.01,0.007,0,0,0,0,0,-0.0402,-0.0386,-0.0307,-0.0285,-0.0243,-0.0167,-0.0123,-0.0077,-0.0015,0.0016,0.0051,0.0081,0.0103,0.0128,0.0156,0.02,0.0216,0.0199,0.0201,0.0202,0.0195,0.0225,0.0228,0.0196,0.0196,0.0196,0,0,-0.042,-0.038,-0.0375,-0.0291,-0.0231,-0.0174,-0.0139,-0.0054,-0.0022,0.0015,0.0068,0.0099,0.0119,0.0152,0.0175,0.017,0.0224,0.0204,0.0205,0.0197,0.0227,0.023,0.0233,0.0198,0.0197,0.0197,0,0,-0.0419,-0.0395,-0.0365,-0.0298,-0.0193,-0.0153,-0.012,-0.0022,0.001,0.0077,0.0089,0.0131,0.018,0.0184,0.019,0.0226,0.0232,0.0228,0.0219,0.0249,0.0251,0.0254,0.0293,0.0299,0.0226,0.0226,0.0226,0,-0.0438,-0.0398,-0.0336,-0.0272,-0.0236,-0.0145,-0.0097,-0.0046,0.0057,0.0073,0.0093,0.0155,0.0182,0.0198,0.0201,0.0225,0.0249,0.0207,0.0249,0.0252,0.0254,0.0294,0.03,0.0226,0.0226,0.0226,0.0226,0,-0.0416,-0.0365,-0.0332,-0.0252,-0.0198,-0.0135,-0.0062,-0.0009,0.0027,0.0065,0.0114,0.0161,0.0188,0.02,0.021,0.0232,0.0247,0.0248,0.0239,0.0256,0.0298,0.0304,0.0225,0.0226,0.0226,0.0226,0,0,-0.051,-0.0356,-0.0344,-0.0301,-0.0187,-0.0145,-0.0094,-0.0035,-0.0017,0.0066,0.0083,0.0129,0.0161,0.017,0.0196,0.0226,0.0271,0.0243,0.0244,0.0272,0.0349,0.0365,0.0374,0.028,0.0281,0.0281,0.0375,0,-0.0511,-0.0419,-0.0346,-0.0278,-0.0228,-0.0149,-0.0123,-0.0059,-0.0012,0.0031,0.0084,0.0114,0.0145,0.0159,0.0197,0.0251,0.0287,0.0246,0.0336,0.0339,0.0343,0.0381,0.0289,0.0365,0.0382,0.0383,0.0384,0,-0.0524,-0.046,-0.0392,-0.0299,-0.0275,-0.0242,-0.0204,-0.0155,-0.0076,-0.0036,0.0019,0.0069,0.0127,0.0149,0.0254,0.0228,0.0284,0.0331,0.0336,0.0355,0.0367,0.035,0.0377,0.0396,0.0395,0.0394,0.0393,0,-0.0642,-0.0507,-0.0471,-0.0432,-0.0309,-0.0298,-0.0263,-0.0189,-0.0155,-0.008,-0.0045,0.0036,0.0085,0.0162,0.0273,0.0261,0.0396,0.0389,0.0459,0.0462,0.0402,0.0397,0.0457,0.0457,0.0457,0.0457,0.0456,0,-0.0691,-0.066,-0.0522,-0.0501,-0.0488,-0.0382,-0.0369,-0.0319,-0.0233,-0.0186,-0.0093,-0.0036,0.0092,0.0192,0.0273,0.0399,0.0398,0.0467,0.0488,0.0399,0.0393,0.0427,0.0422,0.046,0.0459,0.0459,0.0458,0,-0.0806,-0.0708,-0.0656,-0.0548,-0.053,-0.0525,-0.0442,-0.0417,-0.0329,-0.0261,-0.0237,-0.0081,0.0062,0.0195,0.0343,0.0405,0.0512,0.0554,0.0452,0.0459,0.0558,0.0552,0.0636,0.0637,0.0638,0.0639,0.064,0,-0.0851,-0.0832,-0.0727,-0.0705,-0.0657,-0.0623,-0.0597,-0.0496,-0.0444,-0.0282,-0.0249,-0.0087,0.0,0.0232,0.0386,0.0533,0.057,0.0555,0.0512,0.0565,0.0577,0.0569,0.0561,0.0437,0.0436,0.0435,0.0435,0,-0.095,-0.0908,-0.0862,-0.082,-0.0788,-0.0733,-0.068,-0.0652,-0.05,-0.0476,-0.0367,-0.0296,-0.0022,0.0126,0.0364,0.0441,0.0521,0.0546,0.063,0.0406,0.0385,0.0394,0.0391,0.0428,0.0429,0.0429,0.0429,0.043,-0.1036,-0.1035,-0.097,-0.094,-0.088,-0.0818,-0.0802,-0.0736,-0.0704,-0.058,-0.0481,-0.0353,-0.0148,0.0155,0.0314,0.0502,0.0502,0.0523,0.0522,0.0522,0.0483,0.0464,0.0516,0.0517,0.0518,0.0519,0.0519,0,-0.1133,-0.1121,-0.1098,-0.1033,-0.0993,-0.0912,-0.0827,-0.0809,-0.0802,-0.0652,-0.0587,-0.0386,-0.0209,0.0073,0.0319,0.0438,0.041,0.049,0.0414,0.0418,0.0422,0.0375,0.0382,0.0382,0.0383,0.0384,0,0,-0.1184,-0.121,-0.1193,-0.1154,-0.1082,-0.1019,-0.0964,-0.0944,-0.0843,-0.0722,-0.0581,-0.0439,-0.0175,-0.0016,0.0137,0.0285,0.0323,0.0294,0.0375,0.0265,0.0269,0.0396,0.0323,0,0,0,0,0]}],[{"header":{"parameterUnit":"m.s-1","parameterCategory":2,"la1":30.2991,"la2":30.254,"lo1":-89.0895,"lo2":-89.0444,"dy":0.0017,"dx":0.0017,"nx":28,"ny":28,"refTime":"2024-06-14T21:00:00:Z","depth":"4","parameterNumber":2,"parameterNumberName":"U-component_of_CURRENTS"},"data":[0,0,0,0,0,0,0,0,0,0,0,0,0,0,0,0,0,0,0,0,0,0,0,0,0,0,0,0,0,0,0,0,0,0,0,0,0,0,0,0,0,0,0,0,0,0,0,0,0,0,0,0,0,0,0,0,0,0,-0.0547,-0.0547,0,-0.0591,-0.0591,-0.0592,-0.0647,-0.0648,-0.0648,-0.0649,-0.08,-0.0803,-0.0807,0,0,0,0,0,0,0,0,0,0,0,0,0,-0.0531,-0.0531,-0.0547,-0.0547,-0.0548,-0.0591,-0.0591,-0.0592,-0.0647,-0.0648,-0.0649,-0.065,-0.0799,-0.0803,-0.0807,0,0,0,0,0,0,0,0,0,0,0,0,0,-0.0553,-0.0531,-0.0547,-0.058,-0.0583,-0.0591,-0.0591,-0.0592,-0.0647,-0.0648,-0.0649,-0.065,-0.0798,-0.0803,-0.0807,-0.0813,0,0,-0.0822,-0.0825,0,0,0,0,0,0,0,0,-0.0552,-0.0554,-0.0574,-0.0577,-0.0581,-0.0614,-0.0641,-0.0671,-0.0646,-0.0623,-0.0649,-0.0651,-0.0747,-0.0756,-0.0761,-0.082,-0.0827,-0.0823,-0.0826,-0.0828,-0.0829,0,0,0,0,0,0,0,-0.055,-0.0552,-0.0565,-0.0575,-0.0579,-0.0599,-0.0604,-0.0647,-0.068,-0.0625,-0.0629,-0.0633,-0.0749,-0.0756,-0.0765,-0.0829,-0.0823,-0.0827,-0.083,-0.0832,-0.1018,-0.1019,0,0,0,0,0,0,-0.0541,-0.055,-0.0563,-0.0566,-0.0568,-0.0599,-0.0604,-0.0603,-0.0677,-0.0689,-0.0631,-0.0635,-0.0747,-0.0759,-0.0771,-0.0959,-0.0828,-0.0833,-0.0835,-0.1016,-0.1018,-0.102,0,0,0,0,0,0,-0.054,-0.0541,-0.0562,-0.0559,-0.0563,-0.0597,-0.0596,-0.0603,-0.0633,-0.0681,-0.0695,-0.0657,-0.0748,-0.0764,-0.0855,-0.0959,-0.0835,-0.0839,-0.1013,-0.1016,-0.1019,-0.1222,0,0,0,0,0,0,-0.0539,-0.0541,-0.055,-0.0558,-0.0563,-0.0584,-0.0595,-0.0603,-0.0632,-0.0637,-0.0707,-0.0721,-0.075,-0.0848,-0.086,-0.0963,-0.0843,-0.1011,-0.1015,-0.1018,-0.1213,-0.1232,-0.1248,0,0,0,0,0,-0.0539,-0.0548,-0.055,-0.0553,-0.057,-0.0584,-0.0589,-0.0618,-0.0632,-0.0649,-0.0716,-0.072,-0.088,-0.0854,-0.0868,-0.0975,-0.1009,-0.1013,-0.1018,-0.1205,-0.1228,-0.1247,0,0,0,0,0,0,-0.0548,-0.0554,-0.0558,-0.0569,-0.0581,-0.0594,-0.0616,-0.0626,-0.0687,-0.0713,-0.0751,-0.0771,-0.0871,-0.088,-0.085,-0.1029,-0.0942,-0.095,-0.108,-0.1101,-0.1119,-0.1092,-0.0847,0,0,0,0,0,-0.055,-0.056,-0.0566,-0.0577,-0.0585,-0.0601,-0.0615,-0.0637,-0.068,-0.0707,-0.0771,-0.0835,-0.0893,-0.0964,-0.0991,-0.1112,-0.1077,-0.118,-0.1198,-0.1213,-0.1196,-0.1265,-0.1288,-0.1035,-0.1035,-0.1035,0,0,-0.0553,-0.0561,-0.0566,-0.058,-0.0594,-0.0607,-0.0615,-0.0648,-0.0677,-0.0717,-0.0814,-0.0879,-0.092,-0.1047,-0.1098,-0.1088,-0.1261,-0.1219,-0.1233,-0.1206,-0.1272,-0.1297,-0.1319,-0.1038,-0.1037,-0.1037,0,0,-0.0555,-0.0575,-0.0579,-0.0591,-0.0618,-0.0635,-0.0646,-0.0692,-0.0736,-0.0829,-0.0865,-0.1011,-0.1089,-0.119,-0.1232,-0.1357,-0.1313,-0.1358,-0.1491,-0.1561,-0.1583,-0.1602,-0.1571,-0.1585,-0.1418,-0.1418,-0.1418,0,-0.0561,-0.057,-0.0584,-0.0589,-0.0601,-0.0646,-0.0652,-0.0699,-0.0782,-0.0836,-0.0879,-0.1069,-0.1163,-0.1311,-0.1401,-0.1409,-0.1382,-0.1425,-0.1589,-0.1606,-0.1622,-0.1586,-0.1599,-0.1428,-0.1427,-0.1426,-0.1425,0,-0.0556,-0.0574,-0.0584,-0.0604,-0.061,-0.0644,-0.0683,-0.0761,-0.0843,-0.0899,-0.1062,-0.1217,-0.1349,-0.1427,-0.1483,-0.1657,-0.1574,-0.1571,-0.1546,-0.1661,-0.1613,-0.1624,-0.1443,-0.144,-0.1436,-0.1434,0,0,-0.0546,-0.0577,-0.0582,-0.0592,-0.0631,-0.0636,-0.0708,-0.0784,-0.0857,-0.1011,-0.1132,-0.1357,-0.1473,-0.1528,-0.1644,-0.1774,-0.1937,-0.1761,-0.176,-0.1744,-0.201,-0.1719,-0.1701,-0.1969,-0.1972,-0.1975,-0.1925,0,-0.0549,-0.0557,-0.0572,-0.0595,-0.0601,-0.0663,-0.0714,-0.0791,-0.091,-0.1056,-0.1249,-0.1413,-0.1493,-0.165,-0.1782,-0.1904,-0.1974,-0.1944,-0.1883,-0.1879,-0.1623,-0.1709,-0.1986,-0.1932,-0.1934,-0.1936,-0.1937,0,-0.0531,-0.0547,-0.0556,-0.0594,-0.0603,-0.0642,-0.0747,-0.0809,-0.0992,-0.11,-0.1301,-0.1431,-0.1708,-0.175,-0.1965,-0.1938,-0.1977,-0.2035,-0.2034,-0.169,-0.1608,-0.1793,-0.1955,-0.1954,-0.1952,-0.1951,-0.195,0,-0.049,-0.0532,-0.0544,-0.0556,-0.0608,-0.0663,-0.0728,-0.0852,-0.0912,-0.1182,-0.1271,-0.1534,-0.171,-0.1838,-0.1948,-0.2012,-0.2057,-0.2161,-0.1879,-0.1855,-0.2044,-0.2024,-0.2222,-0.2222,-0.2222,-0.2222,-0.2223,0,-0.0476,-0.0485,-0.0553,-0.0562,-0.0604,-0.0656,-0.0748,-0.0852,-0.101,-0.1058,-0.1323,-0.137,-0.1748,-0.1801,-0.191,-0.1858,-0.2012,-0.1874,-0.1836,-0.2123,-0.2113,-0.2049,-0.203,-0.222,-0.2221,-0.2221,-0.2222,0,-0.0419,-0.0455,-0.0479,-0.0562,-0.058,-0.063,-0.0727,-0.0797,-0.0953,-0.1038,-0.1137,-0.1317,-0.1396,-0.1561,-0.1747,-0.1763,-0.1787,-0.1679,-0.1857,-0.1831,-0.1567,-0.1559,-0.1511,-0.15,-0.1492,-0.1484,-0.1478,0,-0.0399,-0.0401,-0.0462,-0.0468,-0.0522,-0.06,-0.0632,-0.0778,-0.0809,-0.0905,-0.09,-0.1025,-0.1121,-0.1113,-0.1305,-0.141,-0.1393,-0.1423,-0.1648,-0.1532,-0.1502,-0.1508,-0.1511,-0.1464,-0.1462,-0.146,-0.1457,0,-0.036,-0.0385,-0.0397,-0.0418,-0.0457,-0.0473,-0.0528,-0.0537,-0.0655,-0.0766,-0.0711,-0.0796,-0.0785,-0.0948,-0.096,-0.1035,-0.1486,-0.1335,-0.1361,-0.1574,-0.1475,-0.1455,-0.1469,-0.1427,-0.1431,-0.1434,-0.1436,0,-0.0333,-0.0327,-0.0343,-0.0356,-0.0371,-0.0353,-0.0401,-0.0404,-0.0446,-0.0557,-0.0469,-0.0562,-0.0678,-0.072,-0.0704,-0.0785,-0.0906,-0.1042,-0.1086,-0.1121,-0.1026,-0.0846,-0.0559,0,0,0,0,0,-0.0308,-0.0269,-0.0272,-0.0272,-0.0287,-0.029,-0.0304,-0.0352,-0.0422,-0.0362,-0.0443,-0.0412,-0.0479,-0.0484,-0.052,-0.0577,-0.0917,-0.0619,-0.1097,-0.1257,-0.1293,-0.1222,0,0,0,0,0,0,-0.0269,-0.0256,-0.0248,-0.0204,-0.0183,-0.0185,-0.0193,-0.0238,-0.0199,-0.0279,-0.029,-0.0389,-0.0427,-0.0449,-0.0503,-0.0524,-0.0827,-0.0674,-0.0674,-0.1238,-0.127,-0.1298,-0.1238,0,0,0,0,0]},{"header":{"parameterUnit":"m.s-1","parameterCategory":2,"la1":30.2991,"la2":30.254,"lo1":-89.0895,"lo2":-89.0444,"dy":0.0017,"dx":0.0017,"nx":28,"ny":28,"refTime":"2024-06-14T21:00:00:Z","depth":"4","parameterNumber":3,"parameterNumberName":"V-component_of_CURRENTS"},"data":[0,0,0,0,0,0,0,0,0,0,0,0,0,0,0,0,0,0,0,0,0,0,0,0,0,0,0,0,0,0,0,0,0,0,0,0,0,0,0,0,0,0,0,0,0,0,0,0,0,0,0,0,0,0,0,0,0,0,-0.034,-0.034,0,-0.036,-0.036,-0.0361,-0.0338,-0.0337,-0.0336,-0.0335,-0.0319,-0.032,-0.032,0,0,0,0,0,0,0,0,0,0,0,0,0,-0.0284,-0.0285,-0.034,-0.034,-0.034,-0.036,-0.036,-0.0361,-0.0338,-0.0337,-0.0336,-0.0335,-0.0319,-0.032,-0.032,0,0,0,0,0,0,0,0,0,0,0,0,0,-0.0308,-0.0286,-0.034,-0.033,-0.033,-0.036,-0.0361,-0.0361,-0.0338,-0.0337,-0.0335,-0.0334,-0.0319,-0.032,-0.032,-0.0353,0,0,-0.0322,-0.0323,0,0,0,0,0,0,0,0,-0.0307,-0.031,-0.0332,-0.0331,-0.033,-0.0344,-0.0335,-0.0356,-0.0339,-0.0336,-0.0335,-0.0333,-0.0325,-0.0325,-0.0334,-0.0353,-0.0352,-0.0322,-0.0323,-0.0323,-0.0323,0,0,0,0,0,0,0,-0.0305,-0.0309,-0.0349,-0.0332,-0.0331,-0.0326,-0.0328,-0.0339,-0.0338,-0.0336,-0.0334,-0.0336,-0.0324,-0.0333,-0.0333,-0.0352,-0.0322,-0.0323,-0.0323,-0.0324,-0.0386,-0.0387,0,0,0,0,0,0,-0.0302,-0.0308,-0.0348,-0.0349,-0.0314,-0.0328,-0.033,-0.0342,-0.0339,-0.0337,-0.0337,-0.0334,-0.0333,-0.0332,-0.0332,-0.0356,-0.0323,-0.0324,-0.0324,-0.0384,-0.0386,-0.0387,0,0,0,0,0,0,-0.0301,-0.0306,-0.0347,-0.0327,-0.0332,-0.0331,-0.0344,-0.0343,-0.0354,-0.0339,-0.0337,-0.0348,-0.0331,-0.0331,-0.035,-0.0355,-0.0324,-0.0325,-0.0383,-0.0385,-0.0387,-0.0412,0,0,0,0,0,0,-0.03,-0.0306,-0.0319,-0.0328,-0.0333,-0.0373,-0.0345,-0.0345,-0.0356,-0.0354,-0.0349,-0.0346,-0.033,-0.035,-0.0351,-0.0356,-0.0325,-0.0381,-0.0384,-0.0386,-0.041,-0.0415,-0.0419,0,0,0,0,0,-0.0298,-0.0318,-0.032,-0.0325,-0.0349,-0.0374,-0.0377,-0.0371,-0.0359,-0.0374,-0.0369,-0.0346,-0.0364,-0.0352,-0.0353,-0.0358,-0.038,-0.0383,-0.0386,-0.0408,-0.0414,-0.0419,0,0,0,0,0,0,-0.03,-0.0318,-0.032,-0.0345,-0.0362,-0.037,-0.0384,-0.0381,-0.0392,-0.0389,-0.0369,-0.0367,-0.0389,-0.0378,-0.0364,-0.0384,-0.0366,-0.0369,-0.0383,-0.0388,-0.0393,-0.0385,-0.0326,0,0,0,0,0,-0.0309,-0.0331,-0.0345,-0.0368,-0.0378,-0.0385,-0.0395,-0.0395,-0.0403,-0.0406,-0.0405,-0.0402,-0.0404,-0.0398,-0.041,-0.0422,-0.0388,-0.0425,-0.043,-0.0434,-0.043,-0.0355,-0.0351,-0.0396,-0.0396,-0.0396,0,0,-0.0318,-0.033,-0.0343,-0.0371,-0.0383,-0.0413,-0.0388,-0.0412,-0.0437,-0.0404,-0.044,-0.0431,-0.0417,-0.0432,-0.0438,-0.0417,-0.0414,-0.0437,-0.044,-0.0435,-0.0357,-0.0352,-0.0348,-0.0398,-0.0398,-0.0398,0,0,-0.0344,-0.0359,-0.0384,-0.0406,-0.0429,-0.0438,-0.0449,-0.0469,-0.0476,-0.0509,-0.0488,-0.0481,-0.0497,-0.0476,-0.0467,-0.0507,-0.0453,-0.0509,-0.0508,-0.0435,-0.0429,-0.0424,-0.0414,-0.0408,-0.0494,-0.0494,-0.0494,0,-0.0352,-0.0392,-0.0397,-0.0428,-0.0452,-0.0453,-0.0491,-0.0506,-0.0531,-0.0541,-0.0526,-0.054,-0.0516,-0.0517,-0.0509,-0.0515,-0.0476,-0.0483,-0.0436,-0.043,-0.0424,-0.0415,-0.0407,-0.0496,-0.0495,-0.0495,-0.0495,0,-0.0399,-0.0435,-0.0454,-0.0497,-0.0521,-0.0558,-0.0577,-0.0607,-0.0612,-0.0614,-0.0634,-0.0607,-0.06,-0.0588,-0.0547,-0.0504,-0.0496,-0.046,-0.0413,-0.042,-0.0412,-0.0404,-0.0498,-0.0497,-0.0497,-0.0496,0,0,-0.041,-0.0475,-0.0484,-0.0516,-0.0564,-0.0588,-0.0638,-0.0675,-0.0706,-0.0708,-0.073,-0.0698,-0.0664,-0.0651,-0.0608,-0.0523,-0.0442,-0.0453,-0.0448,-0.043,-0.0309,-0.0328,-0.032,-0.0371,-0.0369,-0.0367,-0.0334,0,-0.0449,-0.0513,-0.0543,-0.0615,-0.065,-0.0681,-0.0734,-0.0762,-0.0774,-0.0799,-0.0754,-0.0759,-0.0695,-0.0677,-0.0587,-0.0469,-0.0413,-0.0457,-0.0318,-0.0316,-0.0316,-0.0308,-0.036,-0.0328,-0.0326,-0.0324,-0.0323,0,-0.0487,-0.0525,-0.06,-0.0677,-0.0699,-0.0757,-0.0831,-0.0873,-0.0898,-0.09,-0.0881,-0.0842,-0.0749,-0.0688,-0.0504,-0.0522,-0.0421,-0.0334,-0.033,-0.0325,-0.0315,-0.0311,-0.0307,-0.0308,-0.0309,-0.031,-0.0311,0,-0.0483,-0.0567,-0.0629,-0.0658,-0.0746,-0.0805,-0.0862,-0.0912,-0.0941,-0.0958,-0.0955,-0.0876,-0.0822,-0.0667,-0.0501,-0.0468,-0.0309,-0.025,-0.0206,-0.021,-0.019,-0.0195,-0.014,-0.014,-0.014,-0.014,-0.014,0,-0.0511,-0.056,-0.0644,-0.0685,-0.0771,-0.0831,-0.0921,-0.0968,-0.1017,-0.1019,-0.1,-0.0953,-0.0791,-0.0688,-0.053,-0.0359,-0.034,-0.0209,-0.0186,-0.0212,-0.022,-0.0186,-0.0192,-0.0139,-0.0139,-0.0139,-0.0139,0,-0.0507,-0.0556,-0.063,-0.0739,-0.0776,-0.0843,-0.0953,-0.0998,-0.1055,-0.1056,-0.1049,-0.0981,-0.0822,-0.0729,-0.0497,-0.0404,-0.0244,-0.0211,-0.0317,-0.0301,-0.0187,-0.0195,-0.011,-0.011,-0.011,-0.011,-0.011,0,-0.0518,-0.0554,-0.0662,-0.0697,-0.0761,-0.0858,-0.0917,-0.1006,-0.1007,-0.103,-0.0985,-0.0918,-0.0844,-0.0597,-0.0466,-0.0292,-0.0253,-0.0223,-0.0126,-0.019,-0.0176,-0.0184,-0.0192,-0.011,-0.011,-0.011,-0.011,0,-0.0531,-0.0571,-0.0621,-0.0694,-0.0765,-0.0823,-0.0889,-0.0892,-0.0948,-0.0999,-0.0903,-0.0829,-0.0701,-0.0528,-0.0477,-0.0313,-0.025,-0.0221,-0.0218,-0.0125,-0.0189,-0.0177,-0.0185,-0.011,-0.011,-0.011,-0.011,0,-0.0531,-0.0555,-0.0613,-0.0673,-0.0745,-0.0768,-0.0815,-0.0805,-0.0831,-0.0848,-0.0788,-0.0727,-0.0689,-0.0538,-0.043,-0.035,-0.0261,-0.0199,-0.0194,-0.0193,-0.0224,-0.0318,-0.0253,0,0,0,0,0,-0.0523,-0.0529,-0.0583,-0.0638,-0.071,-0.0746,-0.0774,-0.0799,-0.083,-0.0754,-0.0786,-0.0666,-0.0543,-0.0474,-0.0381,-0.0384,-0.0245,-0.027,-0.017,-0.0111,-0.0111,-0.0133,0,0,0,0,0,0,-0.0502,-0.054,-0.0561,-0.0602,-0.0635,-0.0695,-0.0712,-0.073,-0.0662,-0.0693,-0.0609,-0.0635,-0.0493,-0.0607,-0.038,-0.0359,-0.0276,-0.0231,-0.0228,-0.0111,-0.0111,-0.0111,-0.0133,0,0,0,0,0]}]]